Location: LDNL
(36.4545°S, 141.6685°E)
Time: 04:25:52
(UTC+11:00)

Vanguard 2 - Pass Details

Date: 20 August 2022
Orbit: 552 x 2934 km, 32.9° (Epoch: 06 October)

Event Time Altitude Azimuth Distance (km) Brightness Sun altitude
Rises 14:54:50 0° 301° (WNW) 6,291 13.2 31.3°
Reaches altitude 10° 14:58:44 10° 303° (WNW) 5,472 13.3 30.8°
Maximum altitude 15:15:54 65° 20° (NNE) 3,119 11.2 28.4°
Drops below altitude 10° 15:31:53 10° 96° (E) 5,143 11.4 26.1°
Sets 15:35:25 0° 99° (E) 5,911 11.6 25.5°
